Regional Weather Roundup
Issued by NWS Upton, NY

Current Version | Previous Version | Text Only | Print | Product List | Glossary On
Versions: 1 2 3 4 5 6 7 8 9 10 11 12 13 14 15 16 17 18 19 20 21 22 23 24 25 26 27 28 29 30 31 32 33 34 35 36 37 38 39 40 41 42 43 44 45 46 47 48 49 50
909
ASUS41 KOKX 210905
RWROKX

Regional Weather Roundup
National Weather Service New York NY
500 AM EDT SAT APR 21 2018

Note: "FAIR" indicates few or no clouds below 12,000 feet with no
significant weather and/or obstructions to visibility.

NYZ071-072-176-178-NJZ106-104-211000-
New York City Metro Area

CITY           SKY/WX    TMP DP  RH WIND       PRES   REMARKS
Central Park   FAIR      39  25  57 NW3       30.40S
Bronx Bot Gard   N/A     39  25  56 NW3       30.39R
Bronx Lehman C   N/A     39  25  56 NW8         N/A  WCI  34
LaGuardia Arpt FAIR      41  26  55 NW12      30.38S
Queens College   N/A     41  27  56 NW9         N/A
Kennedy Intl   FAIR      39  25  57 NW13      30.39S WCI  31
Breezy Point     N/A     39 N/A N/A NW9         N/A  WCI  33
Brooklyn Coll    N/A     41  27  56 W10         N/A
Staten Island    N/A     37  27  65 W3          N/A
Newark/Liberty FAIR      39  24  55 W5        30.39S
Teterboro      FAIR      38  25  59 MISG      30.38S
$$

NYZ177-179-078>081-211000-
Long Island New York

CITY           SKY/WX    TMP DP  RH WIND       PRES   REMARKS
Jones Beach      N/A     39 N/A N/A NW9         N/A  WCI  33
Wantagh          N/A     37  27  65 W7          N/A  WCI  32
Hempstead        N/A     39  28  65 N5        30.40S
Matinecock Pt    N/A     39 N/A N/A W8          N/A  WCI  34
Farmingdale    FAIR      37  26  64 NW6       30.37S WCI  32
MacArthur/ISP  FAIR      35  26  69 NW8       30.36S WCI  29
Stony Brook      N/A     37  28  70 NW5         N/A  WCI  34
Shirley        FAIR      36  28  73 NW8       30.36S WCI  30
Mt Sinai Harb    N/A    N/A N/A N/A W1          N/A
Westhampton    FAIR      33  24  69 NW7       30.36R WCI  27
East Hampton   FAIR      37  27  66 N5        30.33S WCI  34
Southold         N/A     39  30  70 NW10        N/A  WCI  32
Montauk          N/A     41  30  65 NW8       30.33S
$$

NYZ052-065-067-211000-
Hudson Valley

CITY           SKY/WX    TMP DP  RH WIND       PRES   REMARKS
White Plains   FAIR      36  24  62 NW9       30.35S WCI  29
Larchmont Harb   N/A     39 N/A N/A W10         N/A  WCI  32
Croton On Huds   N/A     34 N/A N/A CALM        N/A
Somers           N/A     32  27  80 NW2         N/A
Brewster         N/A     28  25  86 N1          N/A
Newburgh       CLEAR     30  25  80 W7        30.37S WCI  23
Montgomery     FAIR      37  24  59 W8        30.35F WCI  31
Otisville        N/A     32  27  80 W3          N/A
Warwick          N/A     28  28 100 W3          N/A
Suffern          N/A     36  25  64 NW7         N/A  WCI  30
Poughkeepsie   FAIR      27  23  85 CALM      30.37S
Albany         FAIR      34  24  67 W8        30.35R WCI  27
$$

NJZ001-105-106-008-010-013-015-019>022-104-211000-
New Jersey

CITY           SKY/WX    TMP DP  RH WIND       PRES   REMARKS
Newark/Liberty FAIR      39  24  55 W5        30.39S
Teterboro      FAIR      38  25  59 MISG      30.38S
Caldwell       FAIR      33  26  75 CALM      30.40S
Somerville     FAIR      28  25  88 CALM      30.39S
Linden         FAIR      36  24  60 CALM      30.40S
Perth Amboy      N/A     37 N/A N/A W8          N/A  WCI  31
Sussex         FAIR      26  23  88 CALM      30.38F
Andover          N/A     28  25  88 CALM      30.39S
Trenton        FAIR      35  25  66 NW5       30.40S WCI  31
Millville      FAIR      27  22  81 CALM      30.43R
Atlantic City  FAIR      35  25  66 W3        30.42R
Wrightstown    FAIR      33  25  71 CALM      30.38
Toms River     FAIR      28  23  81 NW3       30.41S
Belmar         FAIR      35  24  64 W5        30.40S WCI  31
$$

PAZ047>061-062-071-211000-
Eastern Pennsylvania

CITY           SKY/WX    TMP DP  RH WIND       PRES   REMARKS
Philadelphia   FAIR      38  25  59 W5        30.44S WCI  34
Allentown      FAIR      32  23  69 W3        30.42S
Scranton       FAIR      28  24  85 CALM      30.40S
$$

CTZ002-004>006-009-010-012-RIZ004-006-007-MAZ004-011-015-211000-
Southern New England

 In CT

CITY           SKY/WX    TMP DP  RH WIND       PRES   REMARKS
Bradley Intl   FAIR      34  25  69 CALM      30.33R
Hartford       FAIR      32  28  85 CALM      30.35R
Danbury        FAIR      27  24  89 SW3       30.37R
Wtrbury/Oxford FAIR      34  24  67 NW7       30.34R WCI  28
Norwalk Harbor   N/A     36 N/A N/A NW6         N/A  WCI  31
Bridgeport     FAIR      37  24  59 NW5       30.36S WCI  33
Meriden        FAIR      29  25  85 SE3       30.35R
New Haven      FAIR      39  25  57 VRB6      30.35R WCI  35
Chester        FAIR      36  25  64 NW7       30.32S WCI  30
Groton         FAIR      36  26  67 N5        30.32R WCI  32
Willimantic    FAIR      33  26  75 CALM      30.33R

 In RI

CITY           SKY/WX    TMP DP  RH WIND       PRES   REMARKS
Providence     FAIR      39  27  62 NW7       30.30S WCI  34
Block Island   FAIR      38  28  67 NW8       30.32R WCI  32
Westerly       FAIR      38  27  64 VRB5      30.32R WCI  34

In MA

CITY           SKY/WX    TMP DP  RH WIND       PRES   REMARKS
Boston         FAIR      39  27  62 W13       30.27S WCI  31
Worcester      FAIR      32  23  69 W9        30.26S WCI  24
Westfield      FAIR      28  25  88 S3        30.32R
Provincetown   FAIR      40  32  73 NW16      30.26R WCI  31
Nantucket      FAIR      40  31  70 NW14      30.26S WCI  32
$$

ANZ330-335-338-340-345-350-353-355-211000-
Coastal Marine Observations


STATION/POSITION TIME  SKY/WX   TEMP    WIND        PRES    VSBY  WAVE
                                AIR SEA DIR/SP/G                  HT/PER
                 (UTC)          (F)     (DEG/KT/KT) (MB)    (MI)  (FT/S)
NY Harb Entrance 0850            42 44  310/ 14/ 16 1029.0          2/ 3
20 S Fire Island 0850            42 42  320/ 14/ 16 1028.3          2/ 4
23 SSW Montauk P 0850            41 42  310/ 14/ 16 1027.1          3/ 5
15 E Barnegat Li 0830               44                N/A           3/ 4
Hudson Canyon    0850            43 44  350/ 16/ 19 1027.4          5/ 5
Kings Point      0824            40 44  360/  8/ 12 1029.7
Execution Rocks  NOT AVBL
Western LI Sound NOT AVBL
Central LI Sound 0830            41     300/ 12/ 14   N/A           1
Robbins Reef     0824            41     280/  9/ 11 1029.6
$$


>>>>>>>>>>>>>>>>>>>>>>>>>>>> KEY <<<<<<<<<<<<<<<<<<<<<<<<<<<
>                                                          <
>     SKY/WX - Sky Condition/Present Weather               <
>     TMP    - Temperature in Fahrenheit                   <
>     DP     - Dew Point in Fahrenheit                     <
>     RH     - Relative Humidity in Percent                <
>     WIND   - Direction (from) and Speed in MPH           <
>     PRES   - Mean Sea Level Pressure (inches of Hg)      <
>     WCI    - Wind Chill Index                            <
>     VSB    - Visibility in Miles                         <
>     HX     - Heat Index                                  <
>     TC     - Temperature in Celsius                      <
>     VRB    - Varibale Wind Direction                     <
>                                                          <
>>>>>>>>>>>>>>>>>>>>>>>>>>>> KEY <<<<<<<<<<<<<<<<<<<<<<<<<<<




USA.gov is the U.S. government's official web portal to all federal, state and local government web resources and services.